Regional Weather Roundup
Issued by NWS

Home | Current Version | Previous Version | Text Only | Print | Product List | Glossary On
Versions: 1 2 3 4 5 6 7 8 9 10 11 12 13 14 15 16 17 18 19 20 21 22 23 24 25 26 27 28 29 30 31 32 33 34 35 36 37 38 39 40 41 42 43 44 45 46 47 48 49 50
000
ASUS43 KMKX 290300
RWRWI

WISCONSIN REGIONAL WEATHER ROUNDUP
NATIONAL WEATHER SERVICE MILWAUKEE/SULLIVAN WI
1000 PM CDT THU APR 28 2016

NOTE: "FAIR" INDICATES FEW OR NO CLOUDS BELOW 12,000 FEET WITH NO
SIGNIFICANT WEATHER AND/OR OBSTRUCTIONS TO VISIBILITY.

WIZ001-002-006>008-014>016-023>028-290400-
NORTHWEST WISCONSIN

CITY           SKY/WX    TMP DP  RH WIND       PRES   REMARKS
SUPERIOR ARPT  PTCLDY    37  31  79 NE8       30.15S WCI  30
ASHLAND        CLOUDY    33  29  85 N6        30.13S WCI  28
HAYWARD        CLOUDY    40  25  55 N3        30.11R
SIREN          CLOUDY    43  25  47 E5        30.11R
CUMBERLAND     CLOUDY    41  34  75 S6        30.10R
RICE LAKE      CLOUDY    41  36  81 SW3       30.12R
CHETEK         CLOUDY    40  37  86 CALM      30.11R
LADYSMITH      CLOUDY    43  35  73 SW5       30.10R
EAU CLAIRE     NOT AVBL
MENOMONIE      DRIZZLE   39  39  99 N3        30.12R
NEW RICHMOND   RAIN      40  39  97 CALM      30.12R
OSCEOLA        LGT RAIN  41  41 100 W6        30.15R
$$

WIZ003>005-009-010-017-018-290400-
NORTH CENTRAL WISCONSIN

CITY           SKY/WX    TMP DP  RH WIND       PRES   REMARKS
MANITOWISH WTR CLOUDY    42  24  49 E7        30.08R
ARBOR VITAE    CLOUDY    47  27  45 NE6       30.06S
WOODRUFF       CLOUDY    47  27  45 NE6       30.06S
RHINELANDER    CLOUDY    45  26  47 E7        30.09R
EAGLE RIVER    CLOUDY    46  19  34 S5        30.06R
LAND O LAKES   CLOUDY    43  26  50 NE5       30.09R
PHILLIPS       CLOUDY    44  33  66 E3        30.06R
TOMAHAWK       CLOUDY    42  31  64 SW3       30.07R
MEDFORD        LGT RAIN  38  37  97 SE5       30.08R WCI  34
MERRILL        LGT RAIN  38  35  89 S6        30.10R WCI  34
$$

WIZ029-030-035-036-043>047-290400-
CENTRAL WISCONSIN

CITY           SKY/WX    TMP DP  RH WIND       PRES   REMARKS
WAUSAU         LGT RAIN  39  35  86 E6        30.09R WCI  35
MOSINEE        LGT RAIN  36  36 100 E6        30.11R WCI  31
MARSHFIELD     LGT RAIN  38  36  92 E7        30.09R FOG     WCI  33
STEVENS POINT  RAIN      35  33  94 NE7       30.10R WCI  29
WAUPACA        CLOUDY    42  32  69 N5        30.08S
WAUTOMA        NOT AVBL
WISC RAPIDS    CLOUDY    38  33  82 NE8       30.10R WCI  32
CAMP DOUGLAS   NOT AVBL
$$

WIZ011>013-019>022-031-037>040-048>050-290400-
NORTHEAST WISCONSIN

CITY           SKY/WX    TMP DP  RH WIND       PRES   REMARKS
ANTIGO         DRIZZLE   37  33  88 CALM      30.09R
SHAWANO        CLOUDY    40  37  87 N9        30.10R WCI  34
OCONTO         CLOUDY    42  32  67 N6        30.08S
STURGEON BAY   CLOUDY    43  28  56 E5        30.10R
GREEN BAY      CLOUDY    43  33  68 N5        30.08R
MANITOWOC      NOT AVBL
APPLETON       CLOUDY    41  30  65 NE8       30.05S
CLINTONVILLE   CLOUDY    39  32  75 N8        30.08S WCI  34
OSHKOSH        CLOUDY    42  34  73 N8        30.06R
$$

WIZ032>034-041-042-053>061-290400-
SOUTHWEST WISCONSIN

CITY           SKY/WX    TMP DP  RH WIND       PRES   REMARKS
LA CROSSE      CLOUDY    41  36  82 NE5       30.09R
SPARTA         CLOUDY    38  37  97 CALM      30.10R
VIROQUA        CLOUDY    38  37  97 E9        30.06R WCI  32
BOSCOBEL       LGT RAIN  42  40  92 VRB3      30.06R FOG
PRAIRIE DU CHI CLOUDY    42  38  88 E5        30.05S
PLATTEVILLE    CLOUDY    41  40  97 NE8       30.03R
$$

WIZ056-057-062-063-064-067-068-290400-
SOUTH CENTRAL WISCONSIN

CITY           SKY/WX    TMP DP  RH WIND       PRES   REMARKS
REEDSBURG      LGT RAIN  39  38  98 N3        30.06S
BARABOO/DELLS  DRIZZLE   38  37  96 NE5       30.06R WCI  35
LONE ROCK      NOT AVBL
MINERAL POINT  LGT RAIN  41  41 100 NE6       30.04R
MADISON        LGT RAIN  39  37  92 NE7       30.05R FOG     WCI  34
MIDDLETON      CLOUDY    41  40  96 NE7       30.05R
WATERTOWN      CLOUDY    39  39 100 E7        30.05R FOG     WCI  34
MONROE         DRIZZLE   37  37 100 NE9       30.03R WCI  31
JANESVILLE     NOT AVBL
$$

WIZ051-052-058>065-066-070>072-290400-
SOUTHEAST WISCONSIN

CITY           SKY/WX    TMP DP  RH WIND       PRES   REMARKS
MILWAUKEE      DRIZZLE   40  38  93 NE10      30.04R WCI  33
WAUKESHA       CLOUDY    37  36  93 E7        30.05R FOG     WCI  32
MILWAUKEE/TIMM CLOUDY    39  36  87 E8        30.05S FOG     WCI  34
RACINE         CLOUDY    41  38  89 NE7       30.05R
BURLINGTON     CLOUDY    38  38  99 NE5       30.03S FOG     WCI  35
KENOSHA        CLOUDY    41  39  93 NE6       30.03R FOG
FOND DU LAC    CLOUDY    42  37  82 NE7       30.07R
SHEBOYGAN      CLOUDY    41  34  76 CALM      30.05R
WEST BEND      CLOUDY    41  34  75 NE8       30.05R
JUNEAU         CLOUDY    39  37  92 NE5       30.07R
$$

LSZ147-162-290400-
LAKE SUPERIOR

STATION/POSITION TIME  TEMP    WIND        PRES    WAVE
                       AIR SEA DIR/SP/G            HT/PER
                 (UTC) (F)     (DEG/KT/KT) (MB)    (FT/S)
W MID LAKE BUOY  0050   37 36   70/ 12/ 14 1020.9R   3/ 5
DEVILS ISLAND    0200   37      20/  8/  9 1021.6R
SAXON HARBOR     0200   39      30/  6/  8 1019.6S
$$

LMZ867-665-643>646-290400-
LAKE MICHIGAN

STATION/POSITION TIME  TEMP    WIND        PRES    WAVE
                       AIR SEA DIR/SP/G            HT/PER
                 (UTC) (F)     (DEG/KT/KT) (MB)    (FT/S)
CHAMBERS ISLAND  0200   40      10/  8/ 10 1018.6S
N MID LAKE BUOY  0050   40 38   60/ 12/ 12 1017.8F   1/ 3
NORTHPORT PIER   0200   43      40/  7/  9 1018.6R
ALGOMA LAKESHORE 0115           60/ 11/ 15   N/A
KEWAUNEE LAKESHO 0200                      1017.5R
SHEBOYGAN LAKESH 0200   41      20/ 15/ 17 1018.2R
PORT WASHINGTON  0200   43      60/ 10/ 11 1017.9
S MID LAKE BUOY  0050   40 40   70/ 14/ 16 1015.2R   2/ 4
KENOSHA   LAKESH 0200   41      30/ 11/ 14 1016.6R
$$

TC  - TEMPERATURE IN CELSIUS
VSB - VISIBILITY IN STATUTE MILES
WCI - WIND CHILL INDEX
HX  - HEAT INDEX





USA.gov is the U.S. government's official web portal to all federal, state and local government web resources and services.